Location: Saluda
(35.2377°N, 82.3468°W)
Time: 12:22:38
(UTC+00:00)

Transit 2A - Visible Passes

Search period start: 05 October 2022 00:00
Search period end: 15 October 2022 00:00
Orbit: 601 x 956 km, 66.7° (Epoch: 05 October)

Date Brightness Start Highest point End Pass type
(mag) Time Alt. Az. Time Alt. Az. Time Alt. Az.
09 Oct 8.4 10:57:01 10° N 11:00:41 21° NE 11:04:35 10° ESE visible
10 Oct 8.6 10:23:30 10° NNE 10:26:06 14° NE 10:28:50 10° E visible
12 Oct 7.0 10:56:03 10° NNW 11:00:50 49° ENE 11:06:04 10° SE visible
13 Oct 7.7 10:21:57 10° N 10:26:23 33° ENE 10:31:12 10° ESE visible
14 Oct 8.2 09:48:03 10° N 09:51:54 22° NE 09:56:00 10° ESE visible
